| time (UTC) | temp C | wind direction | speed KPH | gust KPH | rain 1hr cm | rain 24hr cm | rain mn cm | humidity % | barometer mb |
| 20260505153003 | 17 | 224 | 0.0 | 0.0 | 0.00 | 0.00 | 0.00 | 69 | 1026.6 |
| 20260505151507 | 17 | 224 | 0.0 | 0.0 | 0.00 | 0.00 | 0.00 | 67 | 1026.7 |
| 20260505124504 | 17 | 359 | 0.0 | 0.0 | 0.00 | 0.00 | 0.00 | 55 | 1026.5 |
| 20260505123007 | 17 | 359 | 0.0 | 0.0 | 0.00 | 0.00 | 0.00 | 53 | 1026.5 |
| 20260505121505 | 17 | 359 | 0.0 | 0.0 | 0.00 | 0.00 | 0.00 | 53 | 1026.5 |
| 20260505120004 | 17 | 359 | 0.0 | 0.0 | 0.00 | 0.00 | 0.00 | 52 | 1026.4 |
| 20260505114505 | 17 | 113 | 0.0 | 0.0 | 0.00 | 0.00 | 0.00 | 53 | 1026.4 |
| 20260505113004 | 18 | 113 | 0.0 | 0.0 | 0.00 | 0.00 | 0.00 | 51 | 1026.2 |
| 20260505111507 | 18 | 113 | 0.0 | 0.0 | 0.00 | 0.00 | 0.00 | 51 | 1026.1 |
| 20260505100003 | 18 | 113 | 0.0 | 0.0 | 0.00 | 0.00 | 0.00 | 48 | 1025.3 |
| 20260505094505 | 18 | 113 | 0.0 | 0.0 | 0.00 | 0.00 | 0.00 | 47 | 1025.0 |
| 20260505093008 | 18 | 113 | 0.0 | 0.0 | 0.00 | 0.00 | 0.00 | 46 | 1024.8 |
| 20260505090004 | 18 | 359 | 0.0 | 0.0 | 0.00 | 0.00 | 0.00 | 45 | 1024.3 |
| 20260505084505 | 19 | 359 | 0.0 | 0.0 | 0.00 | 0.00 | 0.00 | 44 | 1024.2 |
| 20260505083003 | 19 | 359 | 0.0 | 0.0 | 0.00 | 0.00 | 0.00 | 43 | 1024.1 |
| 20260505081507 | 20 | 339 | 0.0 | 0.0 | 0.00 | 0.00 | 0.00 | 42 | 1023.9 |
| 20260505080004 | 20 | 172 | 1.6 | 6.4 | 0.00 | 0.00 | 0.00 | 38 | 1024.0 |
| 20260505074506 | 21 | 177 | 0.0 | 0.0 | 0.00 | 0.00 | 0.00 | 41 | 1024.0 |
| 20260505073004 | 21 | 90 | 1.6 | 9.7 | 0.00 | 0.00 | 0.00 | 41 | 1023.7 |
| 20260505071508 | 21 | 186 | 0.0 | 0.0 | 0.00 | 0.00 | 0.00 | 42 | 1023.7 |
| 20260505070005 | 21 | 194 | 0.0 | 6.4 | 0.00 | 0.00 | 0.00 | 40 | 1023.6 |
| 20260505063008 | 21 | 174 | 1.6 | 12.9 | 0.00 | 0.00 | 0.00 | 36 | 1023.3 |
| 20260505061504 | 22 | 194 | 0.0 | 0.0 | 0.00 | 0.00 | 0.00 | 36 | 1023.3 |
| 20260505060008 | 22 | 186 | 1.6 | 6.4 | 0.00 | 0.00 | 0.00 | 35 | 1023.1 |
| 20260505054504 | 22 | 94 | 8.0 | 16.1 | 0.00 | 0.00 | 0.00 | 32 | 1023.1 |
| 20260505053007 | 22 | 181 | 3.2 | 8.0 | 0.00 | 0.00 | 0.00 | 34 | 1023.1 |
| 20260505051504 | 22 | 143 | 1.6 | 11.3 | 0.00 | 0.00 | 0.00 | 35 | 1023.1 |
| 20260505041505 | 26 | 359 | 0.0 | 0.0 | 0.00 | 0.00 | 0.00 | 17 | 1023.3 |
| 20260505040008 | 25 | 359 | 0.0 | 0.0 | 0.00 | 0.00 | 0.00 | 13 | 1023.3 |
| 20260505034504 | 25 | 359 | 0.0 | 0.0 | 0.00 | 0.00 | 0.00 | 14 | 1023.2 |
| 20260505031504 | 23 | 359 | 0.0 | 0.0 | 0.00 | 0.00 | 0.00 | 15 | 1023.4 |
| 20260505030008 | 23 | 359 | 0.0 | 0.0 | 0.00 | 0.00 | 0.00 | 17 | 1023.4 |
| 20260505024503 | 23 | 359 | 0.0 | 0.0 | 0.00 | 0.00 | 0.00 | 17 | 1023.4 |
| 20260505023007 | 23 | 359 | 0.0 | 0.0 | 0.00 | 0.00 | 0.00 | 18 | 1023.6 |
| 20260505020002 | 23 | 1 | 0.0 | 0.0 | 0.00 | 0.00 | 0.00 | 15 | 1023.6 |
| 20260505014504 | 23 | 1 | 0.0 | 0.0 | 0.00 | 0.00 | 0.00 | 17 | 1023.5 |
| 20260505011504 | 22 | 1 | 0.0 | 0.0 | 0.00 | 0.00 | 0.00 | 15 | 1023.3 |
| 20260505010002 | 21 | 1 | 0.0 | 0.0 | 0.00 | 0.00 | 0.00 | 16 | 1023.3 |
| 20260505004505 | 21 | 1 | 0.0 | 0.0 | 0.00 | 0.00 | 0.00 | 15 | 1023.3 |
| 20260505003002 | 21 | 20 | 0.0 | 0.0 | 0.00 | 0.00 | 0.00 | 17 | 1023.1 |
| 20260505001506 | 21 | 20 | 0.0 | 0.0 | 0.00 | 0.00 | 0.00 | 18 | 1022.9 |
| 20260505000003 | 20 | 20 | 0.0 | 0.0 | 0.00 | 0.00 | 0.00 | 18 | 1023.0 |
| 20260504231504 | 18 | 17 | 0.0 | 0.0 | 0.00 | 0.00 | 0.00 | 23 | 1023.3 |
| 20260504230002 | 18 | 53 | 0.0 | 0.0 | 0.00 | 0.00 | 0.00 | 25 | 1023.4 |
| 20260504223006 | 17 | 53 | 0.0 | 0.0 | 0.00 | 0.00 | 0.00 | 28 | 1022.9 |
| 20260504220007 | 16 | 53 | 0.0 | 0.0 | 0.00 | 0.00 | 0.00 | 31 | 1022.7 |
| 20260504214530 | 15 | 53 | 0.0 | 0.0 | 0.00 | 0.00 | 0.00 | 32 | 1022.6 |
| 20260504211502 | 15 | 1 | 0.0 | 0.0 | 0.00 | 0.00 | 0.00 | 31 | 1022.1 |
| 20260504210006 | 15 | 1 | 0.0 | 0.0 | 0.00 | 0.05 | 0.00 | 29 | 1021.6 |
| 20260504203005 | 15 | 1 | 0.0 | 0.0 | 0.00 | 0.05 | 0.00 | 28 | 1020.9 |
| 20260504194503 | 15 | 1 | 0.0 | 0.0 | 0.00 | 0.05 | 0.00 | 31 | 1019.7 |
| 20260504193004 | 15 | 1 | 0.0 | 0.0 | 0.00 | 0.05 | 0.00 | 34 | 1019.1 |
| 20260504191502 | 15 | 333 | 0.0 | 0.0 | 0.00 | 0.05 | 0.00 | 35 | 1018.7 |
| 20260504190006 | 15 | 307 | 0.0 | 0.0 | 0.00 | 0.05 | 0.00 | 37 | 1018.3 |
| 20260504184504 | 15 | 300 | 0.0 | 0.0 | 0.00 | 0.05 | 0.00 | 38 | 1017.9 |
| 20260504183005 | 15 | 314 | 0.0 | 0.0 | 0.00 | 0.05 | 0.00 | 39 | 1017.3 |
| 20260504180005 | 15 | 349 | 0.0 | 0.0 | 0.00 | 0.05 | 0.00 | 40 | 1016.6 |
| 20260504174502 | 15 | 359 | 0.0 | 0.0 | 0.00 | 0.05 | 0.00 | 40 | 1016.3 |
| 20260504173004 | 15 | 359 | 0.0 | 0.0 | 0.00 | 0.05 | 0.00 | 40 | 1015.6 |
| 20260504171508 | 15 | 323 | 0.0 | 0.0 | 0.00 | 0.05 | 0.00 | 40 | 1015.1 |